www.pogodaiklimat.ru

Погода и климат >> Архив погоды >> Буркина-Фасо >> Боромо


ПОГОДА в Боромо

  • Прогноз погоды в Боромо
  • Монитор погоды в Боромо

АРХИВ ПОГОДЫ в Боромо

Время (UTC), дата Ветер
(напр.,м/с)
 
Видим.   Явления Облачность Т
(С)
Тd
(С)
f
(%)
Тe
(С)
Тes
(С)
Комфортность P
(гПа)
Po
(гПа)
Тmin
(С)
Tmax
(С)
R
(мм)
R24
(мм)
S
(см)
03 15.09 ЮЗ 1 10 км в посл. час гроза {дождь} 10/1 1200 м
[Cb cap Ac As]
+21.8 +21.4 98 +28 +28 душно 1008.9 978.7
06 15.09 штиль 0 10 км {гроза, дождь} 9/0
[Ac As Ci sp]
+21.8 +21.1 96 +28 +28 душно 1010.8 980.2 +21.0 35
09 15.09 ЮЗ 1 10 км 9/0
[Ac trans Cs]
+24.8 +22.2 85 +32 +41 очень
душно
911.9 981.4
12 15.09 штиль 0 10 км 9/0
[Ac As Ci sp]
+29.9 +20.3 56 +36 +53 опасность
солнечного
удара
1011.1 980.8
15 15.09 ЮВ 6 10 км 9/1 600 м
[Cb cap Ac As Ci sp]
+31.4 +22.8 60 +41 +43 опасность
перегрева
1011.2 980.8
18 15.09 Ю 3 10 км 9/1 1200 м
[Cb cap Ac As Ci sp]
+24.8 +20.8 78 +31 +31 очень
душно
1010.9 980.2 +31.5
21 15.09 штиль 0 10 км 9/0
[Ac As]
+23.8 +21.7 88 +30 +30 очень
душно
1011.0 980.4
00 16.09 штиль 0 10 км 9/0
[Ac As]
+24.4 +23.1 92 +32 +32 очень
душно
1010.4 980.1
03 16.09 штиль 0 10 км 9/0
[Ac As]
+24.1 +22.6 91 +32 +32 очень
душно
1010.0 979.8
06 16.09 штиль 0 10 км 9/1 600 м
[Sc Ac cast]
+23.4 +22.2 93 +32 +32 очень
душно
1011.1 980.4 +23.0
09 16.09 штиль 0 10 км слаб. дождь 10/1 600 м
[Cb cap Ac As]
+23.9 +22.6 92 +31 +35 очень
душно
1013.1 982.4
12 16.09 штиль 0 10 км слаб. дождь 9/0
[Ac As Ci sp]
+28.4 +24.3 78 +40 +50 очень
душно
1010.8 980.5 4
15 16.09 З 1 15 км 9/1 600 м
[Sc Ac cast Ci sp]
+31.4 +23.0 61 +42 +48 опасность
перегрева
1008.4 978.2
18 16.09 штиль 0 10 км {дождь} 9/1 600 м
[Cb cap Ac cast Ci sp]
+29.6 +23.8 71 +41 +41 опасность
перегрева
1008.5 978.2 +31.7 4
21 16.09 штиль 0 10 км зарница 9/1 1200 м
[Cb cap Ac As Ci sp]
+27.1 +24.6 86 +38 +38 очень
душно
1010.7 980.2
00 17.09 штиль 0 10 км в посл. час гроза {дождь} 9/0
[Ac As Ci sp]
+25.0 +23.1 89 +33 +33 очень
душно
1010.6 980.2 0.2
03 17.09 ЮЗ 1 10 км 9/0
[Ac As Ci sp]
+24.8 +23.7 94 +34 +34 очень
душно
1009.1 978.9
06 17.09 штиль 0 10 км 9/0
[Ac cast Ci sp]
+24.7 +23.7 94 +34 +34 очень
душно
1009.6 979.3 +24.1 4
09 17.09 ЮЗ 3 15 км 9/1 600 м
[Sc Ac cast Ci sp]
+28.4 +24.3 78 +40 +44 очень
душно
1011.2 980.9
12 17.09 В 1 6000 м гроза, ливневой дождь 10/4 600 м
[Cb cap Ac As]
+24.8 +23.5 92 +33 +38 очень
душно
1011.2 980.7 13
15 17.09 Ю 2 8000 м гроза, ливневой дождь 10/3 600 м
[Cb cap Ac As]
+23.4 +22.8 96 +33 +35 очень
душно
1010.1 979.5
18 17.09 штиль 0 10 км гроза без осадков 9/3 600 м
[Cb cap Ac As Ci sp]
+23.0 +22.1 95 +31 +31 очень
душно
1009.0 978.5 +29.5 53
21 17.09 штиль 0 10 км в посл. час гроза 9/0
[Ac trans Ci sp]
+22.0 +21.4 96 +29 +29 очень
душно
1010.6 980.1
00 18.09 штиль 0 10 км {гроза} 9/0
[Ac trans Ci sp]
+22.0 +21.4 96 +29 +29 очень
душно
1011.7 981.0
03 18.09 штиль 0 10 км 9/0
[Ac trans Ci sp]
+21.4 +20.8 96 +27 +27 душно 1020.4 979.6
06 18.09 штиль 0 800 м туман 10/4 600 м
[Sc Ac cast]
+21.6 +21.3 98 +28 +28 очень
душно
1010.6 979.8 +20.8 53
09 18.09 штиль 0 10 км {туман} 9/6 600 м
[Sc Ac trans Ci sp]
+24.0 +22.2 90 +31 +34 очень
душно
1013.5 982.7
12 18.09 Ю 2 10 км {туман} 9/6 600 м
[Sc Ac trans Ci sp]
+29.6 +23.2 69 +40 +45 очень
душно
1012.2 981.8
15 18.09 С 1 10 км 9/3 600 м
[Cu Sc Ac trans Ci sp]
+30.6 +23.4 65 +41 +47 опасность
перегрева
1009.8 979.4
18 18.09 штиль 0 10 км 9/1 600 м
[Sc Ac trans Ci sp]
+29.3 +24.7 76 +42 +42 опасность
перегрева
1009.2 978.8 +30.6
21 18.09 штиль 0 10 км 9/0
[Ci sp]
+26.4 +24.7 90 +37 +37 очень
душно
1011.5 980.9
00 19.09 штиль 0 10 км 9/0
[Ac trans Ci sp]
+25.8 +24.7 94 +37 +37 очень
душно
1011.4 981.1
03 19.09 штиль 0 10 км 9/0
[Ac trans Ci sp]
+25.5 +24.9 96 +36 +36 очень
душно
1010.3 980.1
06 19.09 штиль 0 10 км 9/0
[Ac As Ci sp]
+24.6 +23.9 96 +34 +34 очень
душно
1010.3 980.0 +24.2
09 19.09 ЮВ 4 10 км 9/3 600 м
[Cb cap Ac As Ci sp]
+25.2 +21.2 79 +32 +34 очень
душно
1012.9 982.4
12 19.09 Ю 2 10 км 9/1 600 м
[Sc Ac cuf Cs]
+29.2 +22.7 68 +39 +49 очень
душно
1011.5 981.2
15 19.09 В 2 10 км 10/0
[Ci]
+30.0 +22.2 63 +39 +48 очень
душно
1008.5 978.3
18 19.09 штиль 0 10 км 9/3 600 м
[Cb calv Ac cast Ci sp]
+28.6 +23.9 76 +40 +40 очень
душно
1009.8 979.5 +31.5
21 19.09 штиль 0 10 км 9/0
[Ci sp]
+27.0 +24.5 86 +38 +38 очень
душно
1011.3 980.8
00 20.09 штиль 0 10 км 9/0
[Ac cast Ci sp]
+26.0 +24.6 92 +37 +37 очень
душно
1011.2 980.9
03 20.09 штиль 0 10 км 9/0
[Ac cast Ci sp]
+25.0 +23.7 93 +34 +34 очень
душно
1010.3 980.1
06 20.09 штиль 0 10 км 9/0
[Ac cast Ci sp]
+24.6 +23.7 95 +33 +33 очень
душно
1010.8 980.4 +24.2
09 20.09 В 2 15 км 9/1 600 м
[Sc Ac cast Ci sp]
+27.6 +23.5 78 +37 +42 очень
душно
1013.9 983.5
12 20.09 ЮВ 3 15 км 9/1 600 м
[Cu Sc Ac cast Ci sp]
+30.8 +23.6 66 +42 +51 опасность
перегрева
1011.4 981.2
15 20.09 Ю 2 15 км 9/1 600 м
[Sc Ac cast Ci sp]
+32.5 +23.3 58 +43 +49 опасность
перегрева
1009.3 979.1
18 20.09 штиль 0 15 км гроза без осадков 9/1 600 м
[Cb cap Ac cast Ci sp]
+29.8 +24.0 71 +41 +41 опасность
перегрева
1010.5 980.2 +33.0
21 20.09 штиль 0 10 км в посл. час дождь {гроза} 9/0
[Ac As Ci sp]
+27.7 +23.9 80 +38 +38 очень
душно
1011.6 981.3
00 21.09 штиль 0 10 км {гроза, дождь} 9/0
[Ac As Ci sp]
+26.8 +25.0 90 +39 +39 очень
душно
1010.2 980.0 0.0
03 21.09 штиль 0 10 км 9/0
[Ac As Ci sp]
+25.6 +24.0 91 +35 +35 очень
душно
1009.9 979.8
06 21.09 штиль 0 10 км 9/0
[Ac As Ci sp]
+24.5 +23.8 96 +33 +33 очень
душно
1011.1 980.7 +24.1 0.0
09 21.09 Ю 3 10 км 9/0
[Ac As Ci sp]
+29.2 +24.0 74 +41 +46 опасность
перегрева
1012.2 982.0
12 21.09 С 1 10 км 9/3 600 м
[Cu Sc Ac trans Ci sp]
+33.4 +24.2 59 +46 +56 опасность
перегрева
1011.3 981.3
15 21.09 штиль 0 10 км 9/1 600 м
[Cu Sc Ac trans Ci sp]
+34.0 +23.6 55 +45 +53 опасность
перегрева
1009.7 979.7
18 21.09 штиль 0 10 км 9/1 600 м
[Cu Sc Ci sp]
+32.1 +25.0 66 +46 +46 опасность
перегрева
1009.0 978.9 +34.4
21 21.09 штиль 0 10 км 9/0
[Ci sp]
+28.6 +25.7 84 +42 +42 опасность
перегрева
1011.1 980.9

 

Местоположение метеостанции Боромо (Буркина-Фасо): широта 11.75 долгота -2.93 высота над уровнем моря 271 м.

В архиве по умолчанию представлена погода в Боромо за последнюю неделю. Архивные данные за месяц целиком и за предыдущие месяцы, начиная с января 2011 года, Вы можете получить, выбрав интересующий диапазон дат из раскрывающегося списка и нажав кнопку "Ввод!".


*Определитесь, кто Вы:
робот инопланетянин человек

Внимание! Время в таблицах - всемирное. Для получения местного времени необходимо прибавить поправку, которая равна 0 ч.

Смотрите также архив погоды в соседних городах и на ближайших метеорологических станциях:

Погода в Дедугу (Буркина-Фасо) (100 км)
Погода в Гауа (Буркина-Фасо) (160 км)
Погода в Бобо-Диуласо (Буркина-Фасо) (165 км)
Погода в Уагадугу (Буркина-Фасо) (167 км)
Погода в Ва (Гана) (195 км)
Погода в По (Буркина-Фасо) (205 км)
Погода в Вахигуе (Буркина-Фасо) (210 км)
Погода в Навронго (Гана) (221 км)
Погода в Сане (Мали) (271 км)
Погода в Кутиале (Мали) (285 км)

Пояснения к столбцам:

Ветер - указаны скорость ветра в м/с - средняя за 10 мин, порывы в срок и между сроками (в фигурных скобках) и направление, откуда дует ветер: С - северный, СВ - северо-восточный, В - восточный, ЮВ - юго-восточный, Ю - южный, ЮЗ - юго-западный, З - западный, СЗ - северо-западный.
Видимость - горизонтальная дальность видимости в метрах или километрах. При видимости от 1 до 10 км при отсутствии осадков обычно наблюдается дымка, при ухудшении видимости до 1 км и менее - туман. В сухую погоду видимость может ухудшаться дымом, пылью или мглою.
Явления - указаны атмосферные явления, наблюдавшиеся в срок или в последний час перед сроком; фигурными скобками обозначены явления, наблюдавшиеся между сроками (за 1-3 часа до срока); квадратными скобками обозначены град или гололедные отложения с указанием их диаметра в мм.
Облачность - указаны через наклонную черту общая и нижняя облачность в баллах и высота нижней границы облаков в метрах; квадратными скобками обозначены формы облаков: Ci - перистые, Cs - перисто-слоистые, Cc - перисто-кучевые, Ac - высококучевые, As - высокослоистые, Sc - слоисто-кучевые, Ns - слоисто-дождевые, Cu - кучевые, Cb - кучево-дождевые. Подробнее классификацию облаков см. в Атласе облаков (PDF).
T - Температура воздуха - температура, измеренная на высоте 2 м над землей.
Td - Температура точки росы - температура, при понижении до которой содержащийся в воздухе водяной пар достигнет насыщения.
f - Относительная влажность воздуха - влажноcть воздуха, измеренная на высоте 2 м над землей.
Te - Эффективная температура - температура, которую ощущает одетый по сезону человек в тени. Характеристика душности погоды. При расчете учитывается влияние влажности воздуха и скорости ветра на теплоощущения человека.
Tes - Эффективная температура на солнце - температура, которую ощущает человек, с поправкой на солнечный нагрев. Характеристика знойности погоды. Зависит от высоты солнца над горизонтом, облачности и скорости ветра. Ночью, в пасмурную погоду, а также при ветре 12 м/с и более поправка равна нулю.
P - Атмосферное давление - приведенное к уровню моря атмосферное давление.
Po - Атмосферное давление - измеренное на уровне метеостанции атмосферное давление.
Tmin - Минимальная температура - минимум температуры воздуха на высоте 2 м над землей.
Tmax - Максимальная температура - максимум температуры воздуха на высоте 2 м над землей.
R - Количество осадков - Количество выпавших осадков за период времени, мм. При наведении курсора мыши на число - период времени, за который выпало указанное количество осадков.
R24 - Количество осадков - Количество выпавших осадков за 24 часа, мм.
S - Снежный покров - Высота снежного покрова, см. При наведении курсора мыши на число - состояние снежного покрова и степень покрытия местности в баллах.